Flag for U.S.A. Weather past 2 weeks in Post Falls, Idaho, U.S.A.

Now
61 °F

Passing clouds.


Feels Like: 61 °F
Forecast: 56 / 78 °F
Wind: 9 mph from Northeast

Location: Coeur d'Alene Weather Reporting System

Current Time: Aug 20, 2014 at 10:22:46 PM

Latest Report: Aug 20, 2014 at 9:55 PM


Visibility: 10 mi

Pressure: 29.88 "Hg

Humidity: 77%

Dew point: 54 °F

Location of Post FallsLocation

Historic Weather in Post Falls — Graph

°F

Post Falls temperature yesterday

Maximum temperature yesterday: 86 °F (at 3:35 PM)
Minimum temperature yesterday: 57 °F (at 2:15 AM)
Average temperature yesterday: 69 °F

Past Weeks' High & Low Weather Summary

 TemperatureHumidityPressure
High97 °F (Aug 11, 3:35 PM)94% (Aug 15, 1:35 AM)30.17 "Hg (Aug 15, 1:35 AM)
Low52 °F (Aug 9, 3:35 AM)10% (Aug 10, 5:55 PM)29.66 "Hg (Aug 19, 4:55 PM)
Average71 °F53%29.98 "Hg
* Reported Aug 5 9:15 PM — Aug 20 9:15 PM, Post Falls, Weather by CustomWeather, © 2014

Note: Actual official high and low records may vary slightly from our data, if they occured in-between our weather recording intervals... More about our weather records

Advertising

Post Falls weather history for previous 24 hours

 ConditionsComfort  
Time TempWeatherWind HumidityBarometerVisibility
9:15 PM
Aug 20
63 °FClear.10 mph73%29.88 "Hg10 mi
8:55 PM63 °FClear.13 mph73%29.88 "Hg10 mi
8:35 PMN/ASunny.18 mphN/A29.87 "Hg10 mi
8:15 PM64 °FPartly sunny.17 mph68%29.87 "Hg10 mi
7:55 PM66 °FBroken clouds.13 mph64%29.85 "Hg10 mi
7:35 PM68 °FBroken clouds.9 mph60%29.85 "Hg10 mi
7:15 PMN/APartly sunny.14 mphN/A29.84 "Hg10 mi
6:55 PM72 °FOvercast.No wind50%29.83 "Hg10 mi
6:35 PM73 °FPartly sunny.3 mph44%29.82 "Hg10 mi
6:15 PM73 °FPassing clouds.3 mph47%29.81 "Hg10 mi
5:55 PM73 °FPassing clouds.5 mph41%29.81 "Hg10 mi
5:35 PM75 °FSunny.8 mph34%29.81 "Hg10 mi
4:55 PM79 °FSunny.13 mph32%29.80 "Hg10 mi
4:35 PM79 °FScattered clouds.13 mph32%29.80 "Hg10 mi
4:15 PM79 °FPassing clouds.10 mph34%29.81 "Hg10 mi
3:55 PM79 °FSunny.13 mph34%29.81 "Hg10 mi
3:35 PM79 °FSunny.14 mph34%29.81 "Hg10 mi
3:15 PM79 °FPassing clouds.12 mph34%29.82 "Hg10 mi
2:55 PM77 °FBroken clouds.14 mph39%29.82 "Hg10 mi
2:35 PM75 °FPartly sunny.8 mph44%29.83 "Hg10 mi
1:55 PM73 °FPartly sunny.10 mph50%29.84 "Hg10 mi
1:35 PM73 °FBroken clouds.12 mph50%29.84 "Hg10 mi
1:15 PM73 °FBroken clouds.14 mph50%29.83 "Hg10 mi
12:55 PM73 °FBroken clouds.14 mph50%29.83 "Hg10 mi
12:35 PM72 °FCloudy.10 mph57%29.83 "Hg10 mi
12:15 PM72 °FCloudy.12 mph53%29.84 "Hg10 mi
11:55 AM72 °FScattered clouds.6 mph57%29.84 "Hg10 mi
11:35 AM72 °FPassing clouds.10 mph57%29.84 "Hg10 mi
10:55 AM72 °FScattered clouds.10 mph57%29.84 "Hg10 mi
10:35 AM70 °FScattered clouds.14 mph57%29.84 "Hg10 mi
10:15 AM70 °FScattered clouds.10 mph60%29.84 "Hg10 mi
9:55 AM70 °FSunny.13 mph60%29.84 "Hg10 mi
9:35 AM66 °FSunny.12 mph68%29.84 "Hg10 mi
9:15 AM66 °FSunny.10 mph64%29.83 "Hg10 mi
8:55 AM66 °FSunny.10 mph68%29.82 "Hg10 mi
8:35 AM66 °FSunny.12 mph68%29.82 "Hg10 mi
8:15 AM64 °FSunny.13 mph73%29.81 "Hg10 mi
7:55 AM64 °FSunny.12 mph68%29.81 "Hg10 mi
7:35 AM64 °FPassing clouds.12 mph73%29.80 "Hg10 mi
7:15 AM63 °FSunny.8 mph73%29.80 "Hg10 mi
6:55 AM63 °FSunny.7 mph73%29.80 "Hg10 mi
6:35 AM63 °FPassing clouds.9 mph73%29.79 "Hg10 mi
5:55 AM57 °FClear.No wind82%29.78 "Hg10 mi
5:35 AM59 °FClear.No wind82%29.78 "Hg10 mi
4:55 AM61 °FPassing clouds.9 mph77%29.76 "Hg10 mi
4:35 AM61 °FPassing clouds.7 mph77%29.75 "Hg10 mi
3:55 AM59 °FPartly cloudy.5 mph82%29.75 "Hg10 mi
3:35 AM61 °FPartly cloudy.3 mph83%29.74 "Hg10 mi
3:15 AM61 °FPartly cloudy.6 mph77%29.73 "Hg10 mi
2:55 AM61 °FPassing clouds.6 mph83%29.73 "Hg10 mi
2:35 AM63 °FPassing clouds.12 mph77%29.73 "Hg10 mi
2:15 AM61 °FThunderstorms. Mostly cloudy.7 mph83%29.73 "Hg10 mi
1:55 AM63 °FThundershowers. Mostly cloudy.3 mph77%29.73 "Hg10 mi
1:35 AM61 °FPassing clouds.6 mph77%29.72 "Hg10 mi
1:15 AM61 °FPassing clouds.7 mph77%29.72 "Hg10 mi
12:55 AM61 °FPassing clouds.6 mph77%29.72 "Hg10 mi
12:35 AM61 °FClear.7 mph83%29.72 "Hg10 mi
12:15 AM61 °FClear.8 mph83%29.73 "Hg10 mi
11:55 PM
Aug 19
61 °FPassing clouds.8 mph83%29.73 "Hg10 mi
11:35 PM61 °FPassing clouds.9 mph83%29.73 "Hg10 mi
11:15 PM59 °FPassing clouds.7 mph88%29.72 "Hg10 mi
10:55 PM61 °FPassing clouds.3 mph83%29.72 "Hg10 mi
10:35 PM61 °FPassing clouds.7 mph83%29.72 "Hg10 mi
10:15 PM61 °FClear.5 mph94%29.72 "Hg10 mi
Weather by CustomWeather, © 2014

See weather overviewHow to use our weather pages